• In Germany
  • List of Countries
  • For 7 days
  • Water Temperature
  • Satellite Maps
  • Weather Map
  • Weather Widgets
  • user-avatar
    Login

    Hourly Weather Stara Zagora

    Today, 20 November, Monday

    Time Temperature Precipitation Wind Pressure Humidity
    00:00 +8°C° 0.7 mm 2 mps 737 mmHg 80%
    01:00 +7°C° 0.7 mm 2 mps 737 mmHg 80%
    02:00 +7°C° 0 mm 3 mps 737 mmHg 79%
    03:00 +5°C° 1.5 mm 3 mps 737 mmHg 80%
    04:00 +5°C° 1.5 mm 3 mps 737 mmHg 80%
    05:00 +4°C° 1.5 mm 3 mps 737 mmHg 81%
    06:00 +4°C° 1 mm 4 mps 737 mmHg 81%
    07:00 +4°C° 1 mm 4 mps 737 mmHg 80%
    08:00 +4°C° 1 mm 4 mps 737 mmHg 80%
    09:00 +3°C° 0.3 mm 5 mps 738 mmHg 78%
    10:00 +5°C° 0.3 mm 5 mps 738 mmHg 75%
    11:00 +4°C° 0.3 mm 6 mps 738 mmHg 73%
    12:00 +4°C° 0.2 mm 6 mps 739 mmHg 70%
    13:00 +4°C° 0.2 mm 6 mps 739 mmHg 68%
    14:00 +5°C° 0.2 mm 6 mps 739 mmHg 65%
    15:00 +4°C° 0 mm 6 mps 739 mmHg 66%
    16:00 +5°C° 0 mm 5 mps 739 mmHg 66%
    17:00 +5°C° 0 mm 5 mps 740 mmHg 66%
    18:00 +3°C° 0 mm 5 mps 740 mmHg 68%
    19:00 +3°C° 0 mm 5 mps 740 mmHg 70%
    20:00 +2°C° 0 mm 5 mps 741 mmHg 72%
    21:00 +2°C° 0 mm 5 mps 741 mmHg 73%
    22:00 +1°C° 0 mm 5 mps 741 mmHg 73%
    23:00 +1°C° 0 mm 5 mps 742 mmHg 74%

    Tomorrow, 21 November, Tuesday

    Time Temperature Precipitation Wind Pressure Humidity
    00:00 +1°C° 0 mm 4 mps 742 mmHg 74%
    01:00 +1°C° 0 mm 4 mps 742 mmHg 74%
    02:00 0°C° 0 mm 4 mps 743 mmHg 74%
    03:00 +1°C° 0 mm 3 mps 743 mmHg 74%
    04:00 +1°C° 0 mm 3 mps 743 mmHg 74%
    05:00 +1°C° 0 mm 3 mps 743 mmHg 74%
    06:00 +1°C° 0 mm 3 mps 744 mmHg 74%
    07:00 +1°C° 0 mm 3 mps 744 mmHg 73%
    08:00 +2°C° 0 mm 2 mps 744 mmHg 73%
    09:00 +2°C° 0 mm 3 mps 744 mmHg 66%
    10:00 +4°C° 0 mm 3 mps 744 mmHg 60%
    11:00 +6°C° 0 mm 4 mps 744 mmHg 53%
    12:00 +6°C° 0 mm 4 mps 744 mmHg 51%
    13:00 +8°C° 0 mm 3 mps 744 mmHg 49%
    14:00 +9°C° 0 mm 3 mps 743 mmHg 47%
    15:00 +8°C° 0 mm 3 mps 743 mmHg 51%
    16:00 +7°C° 0 mm 2 mps 743 mmHg 55%
    17:00 +7°C° 0 mm 1 mps 743 mmHg 59%
    18:00 +7°C° 0 mm 1 mps 743 mmHg 60%
    19:00 +6°C° 0 mm 2 mps 743 mmHg 62%
    20:00 +6°C° 0 mm 2 mps 743 mmHg 63%
    21:00 +6°C° 0 mm 2 mps 743 mmHg 63%
    22:00 +6°C° 0 mm 2 mps 743 mmHg 64%
    23:00 +6°C° 0 mm 2 mps 743 mmHg 65%

    Day after tomorrow, 22 November, Wednesday

    Time Temperature Precipitation Wind Pressure Humidity
    00:00 +6°C° 0 mm 2 mps 743 mmHg 66%
    01:00 +5°C° 0 mm 2 mps 743 mmHg 66%
    02:00 +5°C° 0 mm 2 mps 743 mmHg 67%
    03:00 +5°C° 0 mm 2 mps 743 mmHg 67%
    04:00 +5°C° 0 mm 2 mps 743 mmHg 67%
    05:00 +6°C° 0 mm 2 mps 742 mmHg 67%
    06:00 +6°C° 0 mm 2 mps 743 mmHg 68%
    07:00 +6°C° 0 mm 2 mps 743 mmHg 68%
    08:00 +6°C° 0 mm 2 mps 743 mmHg 68%
    09:00 +8°C° 0 mm 3 mps 743 mmHg 63%
    10:00 +10°C° 0 mm 3 mps 743 mmHg 58%
    11:00 +12°C° 0 mm 4 mps 744 mmHg 53%
    12:00 +12°C° 0 mm 4 mps 743 mmHg 52%
    13:00 +13°C° 0 mm 4 mps 743 mmHg 51%
    14:00 +14°C° 0 mm 4 mps 743 mmHg 50%
    15:00 +13°C° 0 mm 3 mps 743 mmHg 55%
    16:00 +13°C° 0 mm 2 mps 743 mmHg 60%
    17:00 +10°C° 0 mm 2 mps 743 mmHg 65%
    18:00 +11°C° 0 mm 1 mps 744 mmHg 67%
    19:00 +10°C° 0 mm 1 mps 744 mmHg 68%
    20:00 +10°C° 0 mm 1 mps 744 mmHg 69%
    21:00 +10°C° 0 mm 1 mps 744 mmHg 70%
    22:00 +9°C° 0 mm 1 mps 744 mmHg 70%
    23:00 +9°C° 0 mm 1 mps 744 mmHg 70%

    23 November, Thursday

    Time Temperature Precipitation Wind Pressure Humidity
    00:00 +9°C° 0 mm 1 mps 744 mmHg 71%
    01:00 +9°C° 0 mm 1 mps 744 mmHg 71%
    02:00 +9°C° 0 mm 1 mps 744 mmHg 72%
    03:00 +9°C° 0 mm 1 mps 744 mmHg 72%
    04:00 +8°C° 0 mm 1 mps 744 mmHg 71%
    05:00 +8°C° 0 mm 1 mps 744 mmHg 71%
    06:00 +8°C° 0 mm 1 mps 744 mmHg 70%
    07:00 +8°C° 0 mm 1 mps 744 mmHg 68%
    08:00 +8°C° 0 mm 1 mps 745 mmHg 67%
    09:00 +10°C° 0 mm 1 mps 745 mmHg 60%
    10:00 +12°C° 0 mm 1 mps 745 mmHg 54%
    11:00 +14°C° 0 mm 1 mps 745 mmHg 47%
    12:00 +15°C° 0 mm 1 mps 745 mmHg 45%
    13:00 +16°C° 0 mm 1 mps 745 mmHg 43%
    14:00 +16°C° 0 mm 1 mps 745 mmHg 41%
    15:00 +15°C° 0 mm 1 mps 745 mmHg 47%
    16:00 +14°C° 0 mm 1 mps 745 mmHg 52%
    17:00 +11°C° 0 mm 0 mps 745 mmHg 57%
    18:00 +12°C° 0 mm 1 mps 746 mmHg 58%
    19:00 +11°C° 0 mm 1 mps 746 mmHg 59%
    20:00 +11°C° 0 mm 1 mps 746 mmHg 61%
    21:00 +10°C° 0 mm 1 mps 746 mmHg 62%
    22:00 +10°C° 0 mm 1 mps 747 mmHg 62%
    23:00 +10°C° 0 mm 1 mps 747 mmHg 63%

    24 November, Friday

    Time Temperature Precipitation Wind Pressure Humidity
    00:00 +10°C° 0 mm 1 mps 747 mmHg 64%
    01:00 +9°C° 0 mm 1 mps 747 mmHg 64%
    02:00 +9°C° 0 mm 1 mps 747 mmHg 65%
    03:00 +9°C° 0 mm 1 mps 747 mmHg 66%
    04:00 +8°C° 0 mm 1 mps 747 mmHg 66%
    05:00 +8°C° 0 mm 1 mps 746 mmHg 67%
    06:00 +8°C° 0 mm 1 mps 747 mmHg 67%
    07:00 +8°C° 0 mm 1 mps 747 mmHg 67%
    08:00 +8°C° 0 mm 1 mps 747 mmHg 67%
    09:00 +10°C° 0 mm 1 mps 747 mmHg 61%
    10:00 +11°C° 0 mm 0 mps 747 mmHg 56%
    11:00 +12°C° 0 mm 0 mps 747 mmHg 50%
    12:00 +13°C° 0 mm 0 mps 747 mmHg 48%
    13:00 +14°C° 0 mm 0 mps 747 mmHg 47%
    14:00 +14°C° 0 mm 0 mps 747 mmHg 45%
    15:00 +13°C° 0 mm 0 mps 747 mmHg 50%
    16:00 +12°C° 0 mm 0 mps 747 mmHg 55%
    17:00 +10°C° 0 mm 0 mps 747 mmHg 60%
    18:00 +10°C° 0 mm 0 mps 747 mmHg 62%
    19:00 +10°C° 0 mm 0 mps 747 mmHg 64%
    20:00 +10°C° 0 mm 1 mps 748 mmHg 66%
    21:00 +10°C° 0 mm 1 mps 748 mmHg 67%
    22:00 +9°C° 0 mm 1 mps 748 mmHg 68%
    23:00 +9°C° 0 mm 1 mps 748 mmHg 70%

    25 November, Saturday

    Time Temperature Precipitation Wind Pressure Humidity
    00:00 +9°C° 0 mm 1 mps 748 mmHg 70%
    01:00 +9°C° 0 mm 1 mps 748 mmHg 71%
    02:00 +8°C° 0 mm 1 mps 749 mmHg 72%
    03:00 +8°C° 0 mm 1 mps 749 mmHg 73%
    04:00 +8°C° 0 mm 1 mps 748 mmHg 73%
    05:00 +7°C° 0 mm 0 mps 748 mmHg 74%
    06:00 +7°C° 0 mm 0 mps 749 mmHg 74%
    07:00 +7°C° 0 mm 0 mps 749 mmHg 74%
    08:00 +7°C° 0 mm 0 mps 749 mmHg 74%
    09:00 +9°C° 0 mm 1 mps 749 mmHg 68%
    10:00 +11°C° 0 mm 1 mps 749 mmHg 62%
    11:00 +13°C° 0 mm 1 mps 749 mmHg 56%
    12:00 +13°C° 0 mm 1 mps 749 mmHg 54%
    13:00 +14°C° 0 mm 1 mps 749 mmHg 52%
    14:00 +14°C° 0 mm 1 mps 748 mmHg 51%
    15:00 +13°C° 0 mm 1 mps 748 mmHg 56%
    16:00 +12°C° 0 mm 1 mps 748 mmHg 62%
    17:00 +11°C° 0 mm 1 mps 748 mmHg 67%
    18:00 +10°C° 0 mm 1 mps 748 mmHg 70%
    19:00 +10°C° 0 mm 1 mps 748 mmHg 73%
    20:00 +9°C° 0 mm 1 mps 749 mmHg 76%
    21:00 +9°C° 0 mm 1 mps 749 mmHg 77%
    22:00 +9°C° 0 mm 1 mps 749 mmHg 79%
    23:00 +8°C° 0 mm 1 mps 749 mmHg 80%
    Show more